Weather reports worldwide

Advertisment
Castlederg, United Kingdom (3904): temperature & dewpoint: 15.01.2020 22:00:00 - 21.01.2020 22:00:00 (GMT)Castlederg, United Kingdom (3904): temperature -20cm: 15.01.2020 22:00:00 - 21.01.2020 22:00:00 (GMT)Castlederg, United Kingdom (3904): wind speed & gusts: 15.01.2020 22:00:00 - 21.01.2020 22:00:00 (GMT)Castlederg, United Kingdom (3904): wind direction: 15.01.2020 22:00:00 - 21.01.2020 22:00:00 (GMT)Castlederg, United Kingdom (3904): reduced air pressure: 15.01.2020 22:00:00 - 21.01.2020 22:00:00 (GMT)Castlederg, United Kingdom (3904): visibility: 15.01.2020 22:00:00 - 21.01.2020 22:00:00 (GMT)Castlederg, United Kingdom (3904): precipitation: 15.01.2020 22:00:00 - 21.01.2020 22:00:00 (GMT)
Date & Time tt [°C] td [°C] tt -20cm [°C] ff [km/h] ff [kn] fx [km/h] fx [kn] dd ppp [hPa] vv [km] rr [mm]
21.01.2020 22:00:00 8,9 8,5 - 9 5 - - W 1040,5 30 0,0
21.01.2020 21:00:00 9,1 8,7 - 9 5 - - W 1040,4 25 0,0
21.01.2020 20:00:00 9,2 8,7 - 5 3 - - WSW 1040,3 23 0,0
21.01.2020 19:00:00 9,4 8,6 - 5 3 - - WSW 1040,1 40 0,0
21.01.2020 18:00:00 9,6 8,5 - 9 5 - - WSW 1039,6 35 0,0
21.01.2020 17:00:00 9,8 8,7 - 16 9 - - WSW 1039,4 50 0,0
21.01.2020 16:00:00 9,9 8,9 - 16 9 - - WSW 1039,4 50 0,0
21.01.2020 15:00:00 9,8 9,0 - 16 9 - - WSW 1039,8 50 0,0
21.01.2020 14:00:00 9,8 9,2 - 16 9 - - WSW 1040,2 17 0,0
21.01.2020 13:00:00 9,6 9,0 - 16 9 - - WSW 1040,7 12 0,0
21.01.2020 12:00:00 9,3 8,9 - 13 7 - - SW 1040,9 16 0,0
21.01.2020 11:00:00 9,1 8,7 - 15 8 - - WSW 1041,1 25 0,0
21.01.2020 10:00:00 8,9 8,6 - 11 6 - - WSW 1041,1 16 0,0
21.01.2020 09:00:00 8,7 8,4 5,2 11 6 - - SW 1040,7 14 0,0
21.01.2020 08:00:00 8,5 8,2 - 11 6 - - SW 1040,4 17 0,0
21.01.2020 07:00:00 8,2 8,0 - 11 6 - - SW 1040,4 7 0,0
21.01.2020 06:00:00 8,1 7,7 - 15 8 - - WSW 1040,4 10 0,0
21.01.2020 05:00:00 7,8 7,4 - 16 9 - - WSW 1040,6 29 0,0
21.01.2020 04:00:00 7,8 7,2 - 15 8 - - WSW 1040,7 20 0,0
21.01.2020 03:00:00 7,8 7,0 - 9 5 - - W 1041,2 14 0,0
21.01.2020 02:00:00 7,9 6,7 - 13 7 - - W 1041,3 13 0,0
21.01.2020 01:00:00 8,0 6,4 - 16 9 - - WSW 1041,6 12 0,0
21.01.2020 00:00:00 8,2 5,9 - 15 8 - - WSW 1042,3 14 0,0
20.01.2020 23:00:00 7,6 5,2 - 11 6 - - SW 1042,2 19 0,0
20.01.2020 22:00:00 8,2 5,3 - 15 8 - - SW 1042,1 18 0,0
20.01.2020 21:00:00 8,6 5,2 - 13 7 - - WSW 1042,6 21 0,0
20.01.2020 20:00:00 8,8 5,1 - 21 11 - - WSW 1042,6 20 0,0
20.01.2020 19:00:00 8,5 5,3 - 15 8 - - SW 1042,7 19 0,0
20.01.2020 18:00:00 7,4 5,3 - 11 6 - - SSW 1042,8 19 0,0
20.01.2020 17:00:00 7,4 5,3 - 15 8 - - SSW 1042,7 21 0,0
20.01.2020 16:00:00 7,4 5,2 - 16 9 - - SSW 1042,8 18 0,0
20.01.2020 15:00:00 7,7 5,0 - 16 9 - - S 1042,8 20 0,0
20.01.2020 14:00:00 7,3 4,8 - 9 5 - - S 1042,9 20 0,0
20.01.2020 13:00:00 7,5 4,9 - 18 10 - - S 1043,1 22 0,0
20.01.2020 12:00:00 7,1 4,7 - 18 10 - - SSW 1043,2 20 0,0
20.01.2020 11:00:00 6,8 4,5 - 16 9 - - SSW 1043,6 20 0,0
20.01.2020 10:00:00 6,5 4,2 - 15 8 - - S 1043,4 21 0,0
20.01.2020 09:00:00 6,1 4,1 4,4 16 9 - - SSW 1043,6 23 0,0
20.01.2020 08:00:00 6,2 4,2 - 18 10 - - SSW 1043,6 20 0,0
20.01.2020 07:00:00 5,9 4,0 - 15 8 - - S 1043,5 21 0,0
20.01.2020 06:00:00 5,7 3,8 - 15 8 - - SSW 1043,6 21 0,0
20.01.2020 05:00:00 5,8 3,8 - 18 10 - - S 1043,5 22 0,0
20.01.2020 04:00:00 5,7 3,6 - 18 10 - - S 1044,1 27 0,0
20.01.2020 03:00:00 5,9 3,5 - 15 8 - - S 1043,9 26 0,0
20.01.2020 02:00:00 5,2 3,3 - 9 5 - - SW 1044,0 23 0,0
20.01.2020 01:00:00 4,9 2,7 - 15 8 - - S 1043,7 30 0,0
20.01.2020 00:00:00 4,9 3,1 - 13 7 - - S 1044,0 24 0,0
19.01.2020 23:00:00 5,5 3,2 - 15 8 - - S 1044,0 30 0,0
19.01.2020 22:00:00 5,5 3,1 - 13 7 - - S 1044,1 25 0,0
19.01.2020 21:00:00 5,0 2,9 - 16 9 - - S 1044,2 27 0,0
19.01.2020 20:00:00 3,6 2,1 - 13 7 - - SSE 1044,2 24 0,0
19.01.2020 19:00:00 3,9 2,0 - 11 6 - - S 1044,1 29 0,0
19.01.2020 18:00:00 4,0 1,6 - 13 7 - - S 1043,8 29 0,0
19.01.2020 17:00:00 4,3 0,9 - 11 6 - - S 1043,6 35 0,0
19.01.2020 16:00:00 5,2 0,9 - 8 4 - - SSW 1043,4 35 0,0
19.01.2020 15:00:00 6,0 1,0 - 8 4 - - S 1043,0 35 0,0
19.01.2020 14:00:00 5,6 1,1 - 11 6 - - SSW 1043,1 30 0,0
19.01.2020 13:00:00 4,6 1,5 - 11 6 - - SE 1043,0 30 0,2
19.01.2020 12:00:00 4,0 2,5 - 2 1 - - S 1043,6 21 0,0
19.01.2020 11:00:00 -0,5 -0,7 - 2 1 - - W 1043,1 10 0,0
19.01.2020 10:00:00 -1,0 -1,0 - 4 2 - - NE 1043,1 17 0,0
19.01.2020 09:00:00 -2,7 -3,0 4,7 4 2 - - E 1042,7 11 0,0
19.01.2020 08:00:00 -3,9 -4,3 - 4 2 - - NE 1042,2 10 0,0
19.01.2020 07:00:00 -4,1 -4,5 - 2 1 - - E 1041,9 11 0,0
19.01.2020 06:00:00 -4,5 -4,9 - 2 1 - - W 1041,7 7 0,0
19.01.2020 05:00:00 -4,8 -5,3 - 4 2 - - ENE 1041,2 9 0,0
19.01.2020 04:00:00 -3,6 -3,9 - 5 3 - - ENE 1040,7 9 0,0
19.01.2020 03:00:00 -3,3 -3,6 - 2 1 - - SE 1040,4 4,4 0,0
19.01.2020 02:00:00 -3,2 -3,5 - 4 2 - - E 1039,9 6 0,0
19.01.2020 01:00:00 -3,0 -3,4 - 4 2 - - ENE 1039,4 6 0,0
19.01.2020 00:00:00 -2,5 -2,9 - 4 2 - - ENE 1039,1 6 0,0
18.01.2020 23:00:00 -1,3 -1,7 - 2 1 - - W 1038,3 7 0,0
18.01.2020 22:00:00 0,2 -0,3 - 5 3 - - WNW 1037,9 7 0,0
18.01.2020 21:00:00 1,2 0,8 - 8 4 - - W 1036,5 11 0,0
18.01.2020 20:00:00 1,0 0,5 - 8 4 - - W 1036,0 7 0,0
18.01.2020 19:00:00 2,0 1,3 - 9 5 - - W 1035,3 7 0,0
18.01.2020 18:00:00 2,5 1,9 - 8 4 - - W 1034,5 7 0,0
18.01.2020 17:00:00 3,3 2,0 - 5 3 - - WSW 1033,2 10 0,0
18.01.2020 16:00:00 5,1 3,0 - 4 2 - - WSW 1032,3 15 0,0
18.01.2020 15:00:00 5,8 3,3 - 9 5 - - WSW 1031,2 20 0,0
18.01.2020 14:00:00 5,9 3,9 - 5 3 - - WSW 1030,2 21 0,0
18.01.2020 13:00:00 4,0 2,8 - 4 2 - - WNW 1029,5 14 0,2
18.01.2020 12:00:00 2,5 1,6 - 8 4 - - W 1029,2 16 0,0
18.01.2020 11:00:00 1,6 1,2 - 8 4 - - W 1028,5 11 0,0
18.01.2020 10:00:00 -0,5 -1,1 - 4 2 - - WNW 1027,5 14 0,0
18.01.2020 09:00:00 0,1 -0,3 5,2 8 4 - - WNW 1026,3 15 0,0
18.01.2020 08:00:00 -0,4 -0,7 - 5 3 - - W 1025,8 17 0,0
18.01.2020 07:00:00 -0,3 -0,8 - 8 4 - - WSW 1025,1 21 0,0
18.01.2020 06:00:00 -0,7 -1,1 - 5 3 - - W 1024,1 19 0,0
18.01.2020 05:00:00 -0,7 -1,4 - 5 3 - - W 1023,1 18 0,0
18.01.2020 04:00:00 0,1 -0,6 - 5 3 - - W 1022,3 25 0,0
18.01.2020 03:00:00 0,4 -0,2 - 8 4 - - W 1021,7 21 0,0
18.01.2020 02:00:00 0,5 -0,7 - 2 1 - - NE 1021,1 30 0,0
18.01.2020 01:00:00 2,2 0,8 - 11 6 - - W 1020,9 25 0,0
18.01.2020 00:00:00 0,7 -0,6 - 5 3 - - W 1019,9 19 0,0
17.01.2020 23:00:00 3,0 0,2 - 13 7 - - W 1019,1 26 0,0
17.01.2020 22:00:00 0,4 -1,0 - 8 4 - - W 1018,1 20 0,0
17.01.2020 21:00:00 1,8 -0,1 - 13 7 - - WSW 1017,1 21 0,0
17.01.2020 20:00:00 1,3 -0,3 - 4 2 - - WSW 1016,1 14 0,0
17.01.2020 19:00:00 2,0 -0,1 - 9 5 - - WSW 1015,1 22 0,0
17.01.2020 18:00:00 2,6 -0,1 - 8 4 - - WSW 1014,0 16 0,0
17.01.2020 17:00:00 4,4 1,4 - 15 8 - - W 1012,6 19 0,0
17.01.2020 16:00:00 5,4 3,2 - 9 5 - - W 1011,2 29 0,0
17.01.2020 15:00:00 5,2 4,0 - 13 7 - - WSW 1010,1 30 0,0
17.01.2020 14:00:00 4,5 3,4 - 9 5 - - WSW 1009,1 45 0,2
17.01.2020 13:00:00 3,8 3,0 - 8 4 - - SW 1008,2 40 0,6
17.01.2020 12:00:00 3,5 2,6 - 13 7 - - WSW 1007,6 8 1,6
17.01.2020 11:00:00 4,2 1,4 - 9 5 - - WSW 1006,5 15 0,0
17.01.2020 10:00:00 3,0 0,5 - 9 5 - - WSW 1005,3 28 0,0
17.01.2020 09:00:00 2,3 -0,1 5,7 16 9 - - SW 1004,3 30 0,0
17.01.2020 08:00:00 1,9 -0,3 - 15 8 - - SW 1003,5 40 0,0
17.01.2020 07:00:00 2,1 -0,1 - 11 6 - - WSW 1003,2 24 0,0
17.01.2020 06:00:00 2,5 0,3 - 16 9 - - SSW 1002,4 30 0,0
17.01.2020 05:00:00 2,9 0,4 - 13 7 - - SW 1001,9 30 0,0
17.01.2020 04:00:00 3,2 0,8 - 18 10 - - SSW 1001,4 24 0,0
17.01.2020 03:00:00 3,0 0,6 - 11 6 - - SW 1001,0 30 0,0
17.01.2020 02:00:00 4,0 1,4 - 15 8 - - SSW 1000,5 27 0,0
17.01.2020 01:00:00 4,7 1,8 - 21 11 - - SW 999,9 26 0,0
17.01.2020 00:00:00 5,1 2,0 - 22 12 - - SW 999,6 40 0,0
16.01.2020 23:00:00 5,2 2,8 - 28 15 - - SSW 998,9 30 0,0
16.01.2020 22:00:00 5,3 3,2 - 22 12 - - SSW 998,2 30 0,0
16.01.2020 21:00:00 5,7 3,9 - 26 14 46 25 SSW 996,8 16 0,0
16.01.2020 20:00:00 5,8 3,4 - 31 17 57 31 SSW 995,4 29 0,0
16.01.2020 19:00:00 6,5 3,3 - 41 22 63 34 SSW 993,9 16 0,0
16.01.2020 18:00:00 7,0 2,9 - 42 23 65 35 SW 992,7 35 0,0
16.01.2020 17:00:00 6,9 4,7 - 24 13 - - SSW 991,4 50 0,0
16.01.2020 16:00:00 7,4 4,8 - 18 10 48 26 SW 990,6 50 0,0
16.01.2020 15:00:00 8,0 5,8 - 31 17 57 31 WSW 989,0 45 0,8
16.01.2020 14:00:00 10,0 8,8 - 26 14 46 25 S 988,0 30 0,4
16.01.2020 13:00:00 8,5 7,9 - 26 14 48 26 SE 988,9 6 4,0
16.01.2020 12:00:00 8,1 7,0 - 24 13 54 29 SE 991,5 6 1,6
16.01.2020 11:00:00 9,4 6,3 - 34 18 59 32 SE 993,4 25 0,0
16.01.2020 10:00:00 8,9 6,0 - 28 15 54 29 SSE 994,8 22 0,0
16.01.2020 09:00:00 9,0 6,3 5,7 29 16 61 33 SSE 996,2 20 0,0
16.01.2020 08:00:00 8,9 6,8 - 34 18 55 30 SSE 996,8 16 0,0
16.01.2020 07:00:00 8,5 7,2 - 34 18 52 28 SSE 998,1 13 0,2
16.01.2020 06:00:00 8,1 6,6 - 31 17 48 26 SSE 998,9 8 0,2
16.01.2020 05:00:00 7,6 6,2 - 26 14 48 26 SSE 999,5 9 0,4
16.01.2020 04:00:00 5,9 5,0 - 29 16 - - SE 1000,6 7 0,6
16.01.2020 03:00:00 4,6 3,7 - 18 10 - - ESE 1001,8 14 0,2
16.01.2020 02:00:00 4,8 3,3 - 16 9 - - SSE 1003,3 15 0,2
16.01.2020 01:00:00 4,5 2,6 - 11 6 - - SE 1004,2 29 0,0
16.01.2020 00:00:00 3,8 2,8 - 13 7 - - SE 1004,2 24 0,0
15.01.2020 23:00:00 2,7 1,2 - 8 4 - - ESE 1004,1 25 0,0
15.01.2020 22:00:00 3,9 2,1 - 11 6 - - S 1004,0 30 0,0

tt = temperature
td = dewpoint
tt -20cm = temperature -20cm
ff = wind speed
fx = gusts
dd = wind direction
ppp = reduced air pressure
vv = visibility
rr = precipitation

Next stations